Location: Monrovia
(34.7865°N, 86.7139°W)
Time: 00:06:08
(UTC+00:00)

NOSS 0 Rocket - Pass Details

Date: 14 July 2020
Orbit: 934 x 955 km, 70.0° (Epoch: 12 August)

Event Time Altitude Azimuth Distance (km) Brightness Sun altitude
Rises 01:48:44 0° 191° (S) 3,573 6.7 -9.2°
Reaches altitude 10° 01:51:15 10° 188° (S) 2,633 6.0 -9.6°
Maximum altitude 01:57:16 62° 109° (ESE) 1,044 3.9 -10.6°
Drops below altitude 10° 02:03:19 10° 30° (NNE) 2,657 6.4 -11.6°
Sets 02:05:53 0° 27° (NNE) 3,608 7.1 -12.0°
